This demonstration page uses our WeatherBlox Daily Observations layout. Learn more.

Left ArrowRight Arrow

36.17497, -115.13722

Hourly Observations for September 30, 2020

Temp ( °F °C ) Dew Point ( °F °C ) Humidity (%) Winds ( mph kmh ) Pressure ( in mb ) Visibility ( mi km ) Precip ( " mm )
12:53 am 00:53 Clear 76 24.4 26 -3.3 16 16 WSW 5 7 30.04 1017 10 16 N/A
1:53 am 01:53 Clear 76 24.4 24 -4.4 14 14 NW 5 7 30.04 1017 10 16 N/A
2:53 am 02:53 Clear 77 25 21 -6.1 12 12 NNW 5 7 30.04 1017 10 16 N/A
3:53 am 03:53 Clear 77 25 19 -7.2 11 11 NW 10 17 30.03 1017 10 16 N/A
4:53 am 04:53 Clear 73 22.8 21 -6.1 14 14 NW 7 11 30.05 1018 10 16 N/A
5:53 am 05:53 Clear 72 22.2 21 -6.1 15 15 NNW 7 11 30.06 1018 10 16 N/A
6:53 am 06:53 Sunny 71 21.7 24 -4.4 17 17 NW 5 7 30.07 1018 10 16 N/A
7:53 am 07:53 Sunny 76 24.4 22 -5.6 13 13 NW 9 15 30.09 1019 10 16 N/A
8:53 am 08:53 Sunny 80 26.7 22 -5.6 11 11 N N/A 30.10 1019 10 16 N/A
9:53 am 09:53 Sunny 83 28.3 23 -5 11 11 S 3 6 30.10 1019 10 16 N/A
10:53 am 10:53 Sunny 86 30 24 -4.4 10 10 N N/A 30.10 1019 10 16 N/A
11:53 am 11:53 Sunny 90 32.2 21 -6.1 8 8 N N/A 30.08 1019 10 16 N/A
12:53 pm 12:53 Sunny 93 33.9 21 -6.1 7 7 VRB 5 7 30.05 1018 10 16 N/A
1:53 pm 13:53 Sunny 96 35.6 20 -6.7 6 6 N N/A 30.02 1017 10 16 N/A
2:53 pm 14:53 Sunny 97 36.1 19 -7.2 6 6 E 5 7 29.99 1016 10 16 N/A
3:53 pm 15:53 Sunny 98 36.7 18 -7.8 5 5 VRB 6 9 29.97 1015 10 16 N/A
4:53 pm 16:53 Sunny 98 36.7 16 -8.9 5 5 E 5 7 29.96 1015 10 16 N/A
5:53 pm 17:53 Sunny 97 36.1 16 -8.9 5 5 N N/A 29.96 1015 10 16 N/A
6:53 pm 18:53 Clear 93 33.9 20 -6.7 7 7 WSW 5 7 29.96 1015 10 16 N/A
7:53 pm 19:53 Clear 89 31.7 26 -3.3 10 10 W 7 11 29.97 1015 10 16 N/A
8:53 pm 20:53 Clear 84 28.9 24 -4.4 11 11 NW 8 13 29.98 1015 10 16 N/A
9:53 pm 21:53 Clear 82 27.8 25 -3.9 12 12 WNW 8 13 29.98 1015 10 16 N/A
10:53 pm 22:53 Clear 79 26.1 24 -4.4 13 13 NW 6 9 29.99 1016 10 16 N/A
11:53 pm 23:53 Clear 79 26.1 22 -5.6 12 12 N N/A 30.00 1016 10 16 N/A

Powered by AerisWeather